THOR ABLESTAR DEB, 158

Orbit data source: Space-Track

THOR ABLESTAR DEB, 158 is space debris in LEO originally from a launch on Thu, 29 Jun 1961 UTC launched from the Air Force Eastern Test Range (AFETR). Debris objects in space refer to the collection of defunct objects orbiting the Earth. Examples of debris include non-operational satellites, rocket bodies, and fragments generated from explosions, collisions, or faulty payload assembly.

Loading next visibility...
Identifier
158, 1961-015AU
Orbit
LEO
Country
Flag of USUS
Related business
Manufacturer
Unknown
Mission
Spacecraft
Bus & Motor
Unknown
Mass
Unknown
Launch date (UTC)
1961-06-29 (64 years ago)
Launch vehicle
Unknown
Launch site
Air Force Eastern Test Range (AFETR)
Object type
Payload
Rocket body
Debris
Shape & HBR
Unknown shape, 0.2 m
Radar Cross Section
Medium (>0.1 m² and <1 m²)

Expand to show TLE details & history
Last TLE update: 8 hours ago

TLE from 8 hours ago
0 THOR ABLESTAR DEB
1 00158U 61015AU  25355.59511282  .00000154  00000-0  52935-3 0  9997
2 00158  67.0715 199.9088 0609517 351.5758   7.5374 12.66124564982864
Epoch: 2025-12-21T14:16Z
TLE epoch observation values (Epoch: 2025-12-21T14:16:57.747Z)
Latitude
-0.00011°
Longitude
-104.73717°
Altitude
930.389 km
Speed
7.607 km/s
True Right ascension
13h 19m 38s
True Declination
0° 00' 00"
Sunlit
Object was in daylight at epoch
Visualization orbit readout
Latitude
Unknown
Longitude
Unknown
Altitude
Unknown
Speed
Unknown
Apparent Right ascension
Unknown
Apparent Declination
Unknown
Sunlit
N/A
Visualization observer readout
Local Sidereal Time
21:38:47
Azimuth
Unknown
Elevation
Unknown
Doppler factor
Unknown
Orbital elements
Apogee altitude
1,870.081 km
Perigee altitude
922.36 km
Semi-major axis
7,774.358 km
Eccentricity
0.06095
Inclination
67.0715°
RAAN
199.9088°
Arg. of periapsis
351.5758°
True anomaly
8.52812°
Mean anomaly
7.5374°
Eccentric anomaly
8.02494°
Mean motion
3.16626 °/min
Orbital period
113.7 mins
BSTAR
0.00052935
Loading maneuver chart data...
Computing Atmospheric mass density...

Documentation

Showing up to 5 results
|